This is the latest recevied weather packets stored in our database for station/object XQ6AK-15. If no packets are shown the sender has not sent any weather packets the latest 10 day(s).
| Time | Temp. | Humidity | Pressure | Rain* | Wind** | Luminosity | Snow |
|---|---|---|---|---|---|---|---|
| 1787436008 | 10.56° C | 90% | 1016.8 hPa | 0 mm | - | 15 W/m² | - |
| 1787435703 | 11.11° C | 88% | 1016.6 hPa | 0 mm | - | 25 W/m² | - |
| 1787435400 | 11.11° C | 88% | 1016.5 hPa | 0 mm | - | 32 W/m² | - |
| 1787435096 | 11.67° C | 87% | 1016.5 hPa | 0 mm | - | 29 W/m² | - |
| 1787434790 | 11.67° C | 85% | 1016.4 hPa | 0 mm | - | 29 W/m² | - |
| 1787434487 | 12.22° C | 84% | 1016.4 hPa | 0 mm | - | 29 W/m² | - |
| 1787434182 | 12.78° C | 81% | 1016.4 hPa | 0 mm | - | 34 W/m² | - |
| 1787433873 | 12.78° C | 78% | 1016.4 hPa | 0 mm | - | 42 W/m² | - |
| 1787433567 | 12.78° C | 78% | 1016.2 hPa | 0 mm | - | 51 W/m² | - |
| 1787433263 | 12.78° C | 73% | 1016.4 hPa | 0 mm | - | 59 W/m² | - |
| 1787432960 | 13.33° C | 74% | 1016.5 hPa | 0 mm | - | 64 W/m² | - |
| 1787432656 | 13.89° C | 74% | 1016.4 hPa | 0 mm | - | 70 W/m² | - |
| 1787432355 | 13.33° C | 68% | 1016.4 hPa | 0 mm | - | 72 W/m² | - |
| 1787432050 | 13.89° C | 71% | 1016.3 hPa | 0 mm | - | 74 W/m² | - |
| 1787431749 | 13.89° C | 67% | 1016.5 hPa | 0 mm | - | 78 W/m² | - |
| 1787431444 | 14.44° C | 66% | 1016.4 hPa | 0 mm | - | 85 W/m² | - |
| 1787431141 | 14.44° C | 62% | 1016.6 hPa | 0 mm | - | 75 W/m² | - |
| 1787430837 | 15° C | 63% | 1016.4 hPa | 0 mm | - | 120 W/m² | - |
| 1787430532 | 14.44° C | 61% | 1016.5 hPa | 0 mm | - | 127 W/m² | - |
| 1787430229 | 14.44° C | 63% | 1016.3 hPa | 0 mm | - | 109 W/m² | - |
| 1787429925 | 14.44° C | 64% | 1016.5 hPa | 0 mm | - | 136 W/m² | - |
| 1787429624 | 15° C | 63% | 1016.3 hPa | 0 mm | - | 122 W/m² | - |
| 1787429320 | 15° C | 64% | 1016.3 hPa | 0 mm | - | 152 W/m² | - |
| 1787429016 | 14.44° C | 64% | 1016.2 hPa | 0 mm | - | 105 W/m² | - |
| 1787428711 | 14.44° C | 63% | 1016.2 hPa | 0 mm | - | 114 W/m² | - |
* Rain latest hour (hover to see other rain measurements)
** Current wind speed in m/s (hover to see current wind gust speed)